Meteo Giornale » Osservazioni meteo Kenya » Mombasa
ore: 08:00 - Osservazioni Meteo Mombasa
Lat. 4° 2' S Lon. 39° 37' E Alt. 57 metri s.l.m.
24 °C
Nuvoloso
Temp. 24 Ore
23 °C
29 °C
Sud/Sud-Ovest
9.3 Km/h
Dew point 22 °C
Umidità 88 %
Visibilità 10 Km
Il sole sorge alle ore 06:20
Il sole tramonta alle ore 18:22
| Data e Ora | Cielo e Fenomeni | T °C | DP °C | Um. % | Pres. hPa | Vis. km | Vento km/h | |
|---|---|---|---|---|---|---|---|---|
| Oggi h: 08:00 | Nuvoloso | 24 | 22 | 88 | 1019 | 10 | S/SO 9.3 | |
| Oggi h: 07:30 | Nuvoloso | 23 | 22 | 94 | 1019 | 10 | SO 7.4 | |
| Oggi h: 07:00 | Nuvoloso | 23 | 21 | 88 | 1018 | 10 | SO 7.4 | |
| Oggi h: 06:30 | Nuvoloso | 23 | 21 | 88 | 1018 | 10 | SO 7.4 | |
| Oggi h: 06:00 | Nuvoloso | 23 | 21 | 88 | 1018 | 10 | SO 7.4 | |
| Oggi h: 05:30 | Pioggia | 23 | 21 | 88 | 1017 | 10 | N 3.7 | |
| Oggi h: 05:00 | Molto Nuvoloso | 23 | 21 | 88 | 1017 | 10 | S/SO 9.3 | |
| Oggi h: 04:30 | Molto Nuvoloso | 23 | 21 | 88 | 1017 | 10 | N 5.5 | |
| Oggi h: 04:00 | Molto Nuvoloso | 23 | 21 | 88 | 1017 | 10 | N 5.5 | |
| Oggi h: 03:30 | Molto Nuvoloso | 23 | 21 | 88 | 1017 | 10 | SO 7.4 | |
| Oggi h: 03:00 | Molto Nuvoloso | 23 | 21 | 88 | 1017 | 10 | N 5.5 | |
| Oggi h: 02:30 | Molto Nuvoloso | 23 | 21 | 88 | 1017 | 10 | N 5.5 | |
| Oggi h: 02:00 | Molto Nuvoloso | 23 | 21 | 88 | 1017 | 10 | S/SO 7.4 | |
| Oggi h: 01:30 | Molto Nuvoloso | 23 | 21 | 88 | 1017 | 10 | N 5.5 | |
| Oggi h: 01:00 | Molto Nuvoloso | 24 | 21 | 83 | 1018 | 10 | N 5.5 | |
| Oggi h: 00:30 | Molto Nuvoloso | 24 | 21 | 83 | 1018 | 10 | N 5.5 | |
| Oggi h: 00:00 | Molto Nuvoloso | 25 | 21 | 78 | 1018 | 10 | S 9.3 | |
| Ieri h: 23:30 | Nuvoloso | 25 | 21 | 78 | 1018 | 10 | S 9.3 | |
| Ieri h: 23:00 | Nuvoloso | 25 | 21 | 78 | 1018 | 10 | S 11.1 | |
| Ieri h: 22:30 | Poco Nuvoloso | 25 | 21 | 78 | 1018 | 10 | S 11.1 | |
| Ieri h: 22:00 | Poco Nuvoloso | 25 | 20 | 73 | 1018 | 10 | S 13 | |
| Ieri h: 21:30 | Poco Nuvoloso | 25 | 20 | 73 | 1018 | 10 | S/SE 13 | |
| Ieri h: 21:00 | Poco Nuvoloso | 25 | 20 | 73 | 1018 | 10 | S/SE 14.8 | |
| Ieri h: 20:30 | Poco Nuvoloso | 25 | 20 | 73 | 1018 | 10 | S/SE 14.8 | |
| Ieri h: 20:00 | Poco Nuvoloso | 25 | 20 | 73 | 1018 | 10 | S 13 | |
| Ieri h: 19:30 | Poco Nuvoloso | 25 | 20 | 73 | 1017 | 10 | S/SE 14.8 | |
| Ieri h: 19:00 | Poco Nuvoloso | 26 | 20 | 69 | 1017 | 10 | S 16.7 | |
| Ieri h: 18:30 | Poco Nuvoloso | 26 | 20 | 69 | 1017 | 10 | S/SE 20.3 | |
| Ieri h: 18:00 | Poco Nuvoloso | 27 | 19 | 61 | 1017 | 10 | S/SE 20.3 | |
| Ieri h: 17:30 | Nuvoloso | 27 | 20 | 65 | 1017 | 10 | S/SE 24 | |
| Ieri h: 17:00 | Nuvoloso | 28 | 20 | 61 | 1017 | 10 | S/SE 24 | |
| Ieri h: 16:30 | Nuvoloso | 28 | 20 | 61 | 1016 | 10 | S/SE 22.2 | |
| Ieri h: 16:00 | Nuvoloso | 28 | 19 | 58 | 1016 | 10 | S/SE 25.9 | |
| Ieri h: 15:30 | Nuvoloso | 29 | 20 | 58 | 1016 | 10 | S/SE 22.2 | |
| Ieri h: 15:00 | Nuvoloso | 29 | 20 | 58 | 1017 | 10 | S/SE 24 | |
| Ieri h: 14:30 | Nuvoloso | 29 | 20 | 58 | 1017 | 10 | SE 20.3 | |
| Ieri h: 14:00 | Nuvoloso | 29 | 20 | 58 | 1017 | 10 | SE 20.3 | |
| Ieri h: 13:30 | Molto Nuvoloso | 29 | 21 | 62 | 1018 | 10 | SE 24 | |
| Ieri h: 13:00 | Molto Nuvoloso | 29 | 20 | 58 | 1018 | 10 | S/SE 24 | |
| Ieri h: 12:30 | Molto Nuvoloso | 28 | 20 | 61 | 1019 | 10 | SE 24 | |
| Ieri h: 12:00 | Molto Nuvoloso | 28 | 20 | 61 | 1019 | 10 | S/SE 24 | |
| Ieri h: 11:30 | Molto Nuvoloso | 28 | 21 | 65 | 1019 | 10 | S/SE 22.2 | |
| Ieri h: 11:00 | Molto Nuvoloso | 28 | 21 | 65 | 1019 | 10 | S/SE 24 | |
| Ieri h: 10:30 | Molto Nuvoloso | 27 | 21 | 69 | 1020 | 10 | S/SE 18.5 | |
| Ieri h: 10:00 | Molto Nuvoloso | 27 | 22 | 74 | 1020 | 10 | S 22.2 | |
| Ieri h: 09:30 | Molto Nuvoloso | 26 | 22 | 78 | 1019 | 10 | S/SE 20.3 | |
| Ieri h: 09:00 | Molto Nuvoloso | 25 | 23 | 88 | 1019 | 10 | S 11.1 | |



